TimeCDT,TemperatureF,Dew PointF,Humidity,Sea Level PressureIn,VisibilityMPH,Wind Direction,Wind SpeedMPH,Gust SpeedMPH,PrecipitationIn,Events,Conditions,WindDirDegrees,DateUTC
12:53 AM,60.1,57.0,90,30.04,10.0,Calm,Calm,-,N/A,,Clear,0,2013-05-07 05:53:00
1:53 AM,57.0,55.0,93,30.04,10.0,Calm,Calm,-,N/A,,Clear,0,2013-05-07 06:53:00
2:53 AM,57.0,55.0,93,30.02,10.0,Calm,Calm,-,N/A,,Clear,0,2013-05-07 07:53:00
3:53 AM,55.0,54.0,96,30.03,10.0,Calm,Calm,-,N/A,,Clear,0,2013-05-07 08:53:00
4:53 AM,55.0,54.0,96,30.04,7.0,Calm,Calm,-,N/A,,Clear,0,2013-05-07 09:53:00
5:41 AM,53.6,51.8,94,30.04,1.8,Calm,Calm,-,N/A,,Clear,0,2013-05-07 10:41:00
5:53 AM,53.1,53.1,100,30.04,1.2,Calm,Calm,-,N/A,,Clear,0,2013-05-07 10:53:00
5:57 AM,53.6,53.6,100,30.04,3.0,Calm,Calm,-,N/A,,Clear,0,2013-05-07 10:57:00
6:53 AM,53.1,52.0,96,30.06,7.0,Calm,Calm,-,N/A,,Clear,0,2013-05-07 11:53:00
7:53 AM,61.0,59.0,93,30.07,7.0,Calm,Calm,-,N/A,,Clear,0,2013-05-07 12:53:00
8:53 AM,68.0,60.1,76,30.08,10.0,SW,3.5,-,N/A,,Clear,220,2013-05-07 13:53:00
9:53 AM,72.0,57.0,59,30.08,10.0,Variable,3.5,-,N/A,,Clear,0,2013-05-07 14:53:00
10:53 AM,75.9,55.0,48,30.08,10.0,Calm,Calm,-,N/A,,Clear,0,2013-05-07 15:53:00
11:53 AM,79.0,55.0,44,30.07,10.0,South,5.8,-,N/A,,Clear,190,2013-05-07 16:53:00
12:53 PM,79.0,55.0,44,30.06,10.0,Calm,Calm,-,N/A,,Clear,0,2013-05-07 17:53:00
1:53 PM,81.0,55.0,41,30.04,10.0,SSE,8.1,17.3,N/A,,Clear,160,2013-05-07 18:53:00
2:53 PM,81.0,55.0,41,30.02,10.0,South,8.1,16.1,N/A,,Clear,190,2013-05-07 19:53:00
3:53 PM,80.1,55.9,43,30.00,10.0,South,15.0,-,N/A,,Clear,170,2013-05-07 20:53:00
4:53 PM,80.1,55.9,43,29.99,10.0,South,11.5,-,N/A,,Clear,190,2013-05-07 21:53:00
5:53 PM,78.1,55.0,45,29.99,10.0,South,13.8,-,N/A,,Clear,180,2013-05-07 22:53:00
6:53 PM,75.0,55.9,51,29.99,10.0,South,10.4,-,N/A,,Clear,180,2013-05-07 23:53:00
7:53 PM,68.0,55.9,65,30.00,10.0,South,9.2,-,N/A,,Clear,180,2013-05-08 00:53:00
8:53 PM,64.0,57.9,80,30.01,10.0,South,5.8,-,N/A,,Clear,180,2013-05-08 01:53:00
9:53 PM,63.0,57.9,84,30.02,10.0,SSE,5.8,-,N/A,,Clear,160,2013-05-08 02:53:00
10:53 PM,59.0,57.0,93,30.03,10.0,Calm,Calm,-,N/A,,Clear,0,2013-05-08 03:53:00
11:53 PM,60.1,57.0,90,30.03,10.0,South,3.5,-,N/A,,Clear,180,2013-05-08 04:53:00